Regional Weather Roundup
Issued by NWS

Home | Current Version | Previous Version | Text Only | Print | Product List | Glossary Off
Versions: 1 2 3 4 5 6 7 8 9 10 11 12 13 14 15 16 17 18 19 20 21 22 23 24 25 26 27 28 29 30 31 32 33 34 35 36 37 38 39 40 41 42 43 44 45 46 47 48 49 50

000
ASUS45 KSLC 291810
RWRUT

UTAH REGIONAL WEATHER ROUNDUP
NATIONAL WEATHER SERVICE SALT LAKE CITY UT
1100 AM MST THU JAN 29 2015

UTZ001>011-023>025-291900-

NORTHERN UTAH

CITY           SKY/WX    TMP DP  RH WIND       PRES   REMARKS
BRIGHAM CITY   SUNNY     40  36  84 NW7       30.37R
HILL AFB       PTSUNNY   41  29  62 S10       30.35S
LOGAN          CLOUDY    33  32  96 CALM      30.40S FOG
OGDEN          MOSUNNY   40  35  83 W5        30.36R
PROVO AIRPORT  MOSUNNY   37  30  75 VRB3      30.38S FOG
SALT LAKE CITY FOG       38  34  85 N6        30.37R VSB 1/2 WCI  33
VERNAL         PTSUNNY   42  30  62 E6        30.41S
WENDOVER       PTSUNNY   43  32  65 CALM      30.38S
HEBER CITY     PTSUNNY   34  30  86 CALM      30.40S
WEST JORDAN    SUNNY     41  37  87 E5        30.37S

$$

UTZ012>022-026-027-291900-

SOUTHERN/CENTRAL UTAH

CITY           SKY/WX    TMP DP  RH WIND       PRES   REMARKS
BLANDING       CLOUDY    45  31  58 SE7       30.44R
BRYCE CANYON   CLOUDY    37  28  70 NE3       30.37R
CEDAR CITY     CLOUDY    39  33  79 W3        30.31R
DELTA          MOSUNNY   39  33  80 CALM      30.34F
HANKSVILLE     CLOUDY    41  32  70 CALM      30.40S
MILFORD        PTSUNNY   42  34  73 N12       30.33S
MOAB/CYNLANDS  SUNNY     44  33  65 CALM      30.36R
PRICE          PTSUNNY   45  29  53 E3        30.37R
ST GEORGE      MOCLDY    52  39  62 CALM      30.27F
KANAB            N/A     52  32  46 NE8       30.33F

$$

REGIONAL REPORTS     COLORADO/ARIZONA

CITY           SKY/WX    TMP DP  RH WIND       PRES   REMARKS
CRAIG, CO      MOSUNNY   33  30  88 N3        30.42F
GRAND JUNCTION SUNNY     47  28  47 SE8       30.37S
RIFLE          SUNNY     42  26  53 CALM      30.38F
MONTROSE       MOSUNNY   42  29  59 CALM      30.40S
CORTEZ         CLOUDY    45  30  55 CALM      30.37R
PAGE, AZ       NOT AVBL
GRAND CANYON   CLOUDY    45  30  55 E14       30.31R
KINGMAN        CLOUDY    55  42  61 N5        30.19S
FLAGSTAFF      CLOUDY    44  30  57 E10       30.32R

$$

REGIONAL REPORTS    NEVADA/IDAHO/WYOMING

CITY           SKY/WX    TMP DP  RH WIND       PRES   REMARKS
LAS VEGAS, NV  CLOUDY    58  42  55 S10       30.17R
ELY            PTSUNNY   35  31  85 CALM      30.34S
ELKO           CLOUDY    37  33  85 CALM      30.32F
POCATELLO, ID  CLOUDY    33  32  96 NE7       30.41F FOG     WCI  27
BURLEY         CLOUDY    37  31  78 E14       30.39S WCI  28
EVANSTON, WY   PTSUNNY   31  28  89 NE5       30.39S FOG     WCI  26
ROCK SPRINGS   CLOUDY    28  28 100 E12       30.43S FOG     WCI  18
KEMMERER       CLOUDY    32  30  93 NE10G20   30.41S WCI  24

$$



USA.gov is the U.S. government's official web portal to all federal, state and local government web resources and services.